Terminal Aerodrome Forecast
Issued by NWS Louisville, KY

Home | Current Version | Previous Version | Text Only | Print | Product List | Glossary On
Versions: 1 2 3 4 5 6 7 8 9 10 11 12 13 14 15 16 17 18 19 20 21 22 23
000
FTUS43 KLMK 131200 AAA
TAFLEX
TAF AMD
KLEX 131246Z 1313/1412 20010KT P6SM SCT050 BKN200
     FM131400 20012G20KT P6SM SCT050 BKN200
     FM131600 20019G30KT P6SM FEW040 BKN200
     FM140000 18013G20KT P6SM BKN150=

USA.gov is the U.S. government's official web portal to all federal, state and local government web resources and services.